• In Deutschland
  • Länderverzeichnis
  • Für 7 Tage
  • Wassertemperatur
  • Satellitenkarten
  • Wetterkarte
  • Widgets
  • user-avatar
    Anmelden

    Stündliche Wetter Kaprun

    Heute, 27 März, Montag

    Zeit Temperatur Niederschläge Wind Luftdruck Luftfeuchtigkeit
    00:00 -8°C° 0 mm 1 m/S 596 mmHg 96%
    01:00 -8°C° 0 mm 1 m/S 596 mmHg 96%
    02:00 -8°C° 0 mm 1 m/S 596 mmHg 95%
    03:00 -8°C° 0 mm 1 m/S 596 mmHg 95%
    04:00 -8°C° 0 mm 1 m/S 596 mmHg 95%
    05:00 -7°C° 0 mm 1 m/S 596 mmHg 92%
    06:00 -6°C° 0 mm 1 m/S 597 mmHg 89%
    07:00 -4°C° 0 mm 1 m/S 597 mmHg 86%
    08:00 -2°C° 0 mm 1 m/S 598 mmHg 79%
    09:00 +1°C° 0 mm 1 m/S 599 mmHg 71%
    10:00 +4°C° 0 mm 1 m/S 600 mmHg 64%
    11:00 +5°C° 0 mm 1 m/S 601 mmHg 61%
    12:00 +5°C° 0 mm 1 m/S 601 mmHg 58%
    13:00 +6°C° 0 mm 1 m/S 601 mmHg 56%
    14:00 +6°C° 0 mm 1 m/S 601 mmHg 58%
    15:00 +6°C° 0 mm 1 m/S 600 mmHg 60%
    16:00 +6°C° 0 mm 1 m/S 600 mmHg 62%
    17:00 +2°C° 0 mm 1 m/S 599 mmHg 70%
    18:00 -1°C° 0 mm 1 m/S 597 mmHg 78%
    19:00 -6°C° 0 mm 1 m/S 596 mmHg 85%
    20:00 -6°C° 0 mm 1 m/S 596 mmHg 85%
    21:00 -6°C° 0 mm 1 m/S 596 mmHg 84%
    22:00 -6°C° 0 mm 1 m/S 596 mmHg 83%
    23:00 -6°C° 0 mm 1 m/S 596 mmHg 80%

    Morgen, 28 März, Dienstag

    Zeit Temperatur Niederschläge Wind Luftdruck Luftfeuchtigkeit
    00:00 -6°C° 0 mm 1 m/S 596 mmHg 77%
    01:00 -6°C° 0 mm 1 m/S 597 mmHg 75%
    02:00 -6°C° 0 mm 1 m/S 596 mmHg 73%
    03:00 -6°C° 0 mm 1 m/S 596 mmHg 71%
    04:00 -7°C° 0 mm 1 m/S 596 mmHg 70%
    05:00 -6°C° 0 mm 1 m/S 596 mmHg 68%
    06:00 -4°C° 0 mm 1 m/S 597 mmHg 65%
    07:00 -3°C° 0 mm 1 m/S 598 mmHg 63%
    08:00 0°C° 0 mm 1 m/S 599 mmHg 62%
    09:00 +3°C° 0 mm 1 m/S 600 mmHg 60%
    10:00 +6°C° 0 mm 1 m/S 602 mmHg 59%
    11:00 +6°C° 0 mm 1 m/S 602 mmHg 59%
    12:00 +7°C° 0 mm 1 m/S 602 mmHg 59%
    13:00 +7°C° 0 mm 1 m/S 602 mmHg 59%
    14:00 +7°C° 0 mm 1 m/S 602 mmHg 63%
    15:00 +7°C° 0 mm 1 m/S 601 mmHg 67%
    16:00 +7°C° 0 mm 1 m/S 601 mmHg 71%
    17:00 +4°C° 0 mm 1 m/S 600 mmHg 79%
    18:00 +2°C° 0 mm 1 m/S 599 mmHg 87%
    19:00 -1°C° 0 mm 1 m/S 598 mmHg 95%
    20:00 -1°C° 0 mm 1 m/S 599 mmHg 95%
    21:00 0°C° 0 mm 1 m/S 599 mmHg 96%
    22:00 0°C° 0 mm 1 m/S 600 mmHg 96%
    23:00 -1°C° 0 mm 1 m/S 600 mmHg 96%

    übermorgen, 29 März, Mittwoch

    Zeit Temperatur Niederschläge Wind Luftdruck Luftfeuchtigkeit
    00:00 -1°C° 0 mm 1 m/S 600 mmHg 96%
    01:00 -1°C° 0 mm 1 m/S 600 mmHg 96%
    02:00 -1°C° 0 mm 1 m/S 600 mmHg 96%
    03:00 -1°C° 0 mm 1 m/S 600 mmHg 95%
    04:00 -3°C° 0 mm 2 m/S 600 mmHg 95%
    05:00 -3°C° 0 mm 2 m/S 600 mmHg 94%
    06:00 -2°C° 0 mm 2 m/S 601 mmHg 93%
    07:00 -2°C° 0 mm 2 m/S 601 mmHg 92%
    08:00 +2°C° 0 mm 1 m/S 602 mmHg 86%
    09:00 +4°C° 0 mm 1 m/S 602 mmHg 80%
    10:00 +5°C° 0 mm 1 m/S 603 mmHg 73%
    11:00 +6°C° 0 mm 1 m/S 603 mmHg 72%
    12:00 +7°C° 0 mm 1 m/S 603 mmHg 71%
    13:00 +8°C° 0 mm 1 m/S 603 mmHg 69%
    14:00 +7°C° 0 mm 1 m/S 603 mmHg 71%
    15:00 +7°C° 0 mm 1 m/S 603 mmHg 72%
    16:00 +7°C° 0 mm 1 m/S 602 mmHg 73%
    17:00 +5°C° 0 mm 1 m/S 601 mmHg 81%
    18:00 +3°C° 0 mm 1 m/S 601 mmHg 88%
    19:00 0°C° 0 mm 1 m/S 600 mmHg 96%
    20:00 +1°C° 0 mm 1 m/S 600 mmHg 96%
    21:00 +1°C° 0 mm 1 m/S 601 mmHg 96%
    22:00 +1°C° 0 mm 1 m/S 602 mmHg 96%
    23:00 +1°C° 0 mm 1 m/S 601 mmHg 96%

    30 März, Donnerstag

    Zeit Temperatur Niederschläge Wind Luftdruck Luftfeuchtigkeit
    00:00 0°C° 0 mm 1 m/S 601 mmHg 95%
    01:00 -1°C° 0 mm 1 m/S 601 mmHg 95%
    02:00 -1°C° 0 mm 1 m/S 601 mmHg 95%
    03:00 -1°C° 0 mm 1 m/S 600 mmHg 94%
    04:00 -2°C° 0 mm 1 m/S 600 mmHg 94%
    05:00 -1°C° 0 mm 1 m/S 600 mmHg 92%
    06:00 0°C° 0 mm 1 m/S 601 mmHg 90%
    07:00 0°C° 0 mm 1 m/S 601 mmHg 88%
    08:00 +3°C° 0 mm 1 m/S 602 mmHg 80%
    09:00 +4°C° 0 mm 0 m/S 603 mmHg 71%
    10:00 +6°C° 0 mm 0 m/S 604 mmHg 62%
    11:00 +7°C° 0 mm 0 m/S 604 mmHg 60%
    12:00 +9°C° 0 mm 1 m/S 604 mmHg 57%
    13:00 +10°C° 0 mm 1 m/S 604 mmHg 55%
    14:00 +9°C° 0 mm 1 m/S 604 mmHg 57%
    15:00 +9°C° 0 mm 1 m/S 604 mmHg 60%
    16:00 +9°C° 0 mm 1 m/S 603 mmHg 62%
    17:00 +6°C° 0 mm 1 m/S 602 mmHg 72%
    18:00 +3°C° 0 mm 1 m/S 601 mmHg 82%
    19:00 +1°C° 0 mm 1 m/S 600 mmHg 92%
    20:00 +1°C° 0 mm 1 m/S 600 mmHg 92%
    21:00 +1°C° 0 mm 1 m/S 600 mmHg 92%
    22:00 +1°C° 0 mm 1 m/S 600 mmHg 91%
    23:00 -1°C° 0 mm 2 m/S 600 mmHg 91%

    31 März, Freitag

    Zeit Temperatur Niederschläge Wind Luftdruck Luftfeuchtigkeit
    00:00 -1°C° 0 mm 2 m/S 600 mmHg 91%
    01:00 -1°C° 0 mm 2 m/S 600 mmHg 90%
    02:00 -1°C° 0 mm 2 m/S 600 mmHg 91%
    03:00 -1°C° 0 mm 2 m/S 600 mmHg 91%
    04:00 -2°C° 0 mm 2 m/S 599 mmHg 91%
    05:00 -1°C° 0 mm 2 m/S 600 mmHg 90%
    06:00 -1°C° 0 mm 2 m/S 600 mmHg 89%
    07:00 +1°C° 0 mm 2 m/S 600 mmHg 88%
    08:00 +3°C° 0 mm 2 m/S 600 mmHg 80%
    09:00 +5°C° 0 mm 2 m/S 601 mmHg 73%
    10:00 +7°C° 0 mm 2 m/S 602 mmHg 65%
    11:00 +7°C° 0 mm 2 m/S 602 mmHg 62%
    12:00 +8°C° 0 mm 2 m/S 601 mmHg 59%
    13:00 +9°C° 0 mm 2 m/S 601 mmHg 56%
    14:00 +9°C° 0 mm 2 m/S 601 mmHg 58%
    15:00 +8°C° 0 mm 2 m/S 600 mmHg 61%
    16:00 +8°C° 0 mm 2 m/S 600 mmHg 63%
    17:00 +6°C° 0 mm 2 m/S 599 mmHg 72%
    18:00 +4°C° 0 mm 2 m/S 598 mmHg 82%
    19:00 +2°C° 0 mm 2 m/S 597 mmHg 91%
    20:00 +1°C° 0 mm 2 m/S 597 mmHg 91%
    21:00 +1°C° 0 mm 2 m/S 596 mmHg 91%
    22:00 +1°C° 0 mm 2 m/S 596 mmHg 92%
    23:00 -1°C° 0 mm 2 m/S 596 mmHg 92%

    1 April, Samstag

    Zeit Temperatur Niederschläge Wind Luftdruck Luftfeuchtigkeit
    00:00 -1°C° 0 mm 2 m/S 596 mmHg 92%
    01:00 -1°C° 0 mm 2 m/S 596 mmHg 93%
    02:00 -2°C° 0 mm 2 m/S 595 mmHg 93%
    03:00 -2°C° 0 mm 2 m/S 595 mmHg 93%
    04:00 -2°C° 0 mm 2 m/S 594 mmHg 93%
    05:00 -2°C° 0 mm 2 m/S 595 mmHg 92%
    06:00 -2°C° 0 mm 2 m/S 595 mmHg 90%
    07:00 -2°C° 0 mm 2 m/S 595 mmHg 89%
    08:00 +1°C° 0 mm 2 m/S 595 mmHg 82%
    09:00 +3°C° 0 mm 2 m/S 596 mmHg 74%
    10:00 +5°C° 0 mm 2 m/S 597 mmHg 66%
    11:00 +6°C° 0 mm 2 m/S 597 mmHg 65%
    12:00 +6°C° 0 mm 2 m/S 597 mmHg 63%
    13:00 +7°C° 0 mm 3 m/S 596 mmHg 61%
    14:00 +5°C° 0,3 mm 3 m/S 596 mmHg 64%
    15:00 +5°C° 0,3 mm 3 m/S 595 mmHg 67%
    16:00 +4°C° 0,3 mm 3 m/S 595 mmHg 71%
    17:00 +3°C° 0,3 mm 2 m/S 594 mmHg 79%
    18:00 +1°C° 0,3 mm 2 m/S 593 mmHg 87%
    19:00 -2°C° 0,3 mm 2 m/S 593 mmHg 95%
    20:00 -2°C° 0,1 mm 2 m/S 593 mmHg 95%
    21:00 -2°C° 0,1 mm 2 m/S 593 mmHg 94%
    22:00 -2°C° 0,1 mm 2 m/S 593 mmHg 94%
    23:00 -3°C° 0 mm 2 m/S 593 mmHg 94%
    Mehr zeigen